Vertical_Velocity
-1 8 0 2 1 2 3 4 3 -8 -7 11 -1 -1 -6 -8 -1 -3 -5 -4 -6 -4 2 -2 -20 5 -5 6 -6 5 -4 13 5 7 3 5 -12 0 -5 -3 4 -1 3 2
7 0 1 0 0 3 1 3 -8 -9 -1 14 -3 -9 -4 -0 5 6 2 -6 -6 -13 -4 6 5 12 7 -6 1 7 1 -1 -0 3 5 11 0 1 4 -3 3 -5 -2 -1
4 2 0 3 -1 3 -3 4 -2 11 -6 -6 2 -7 -5 -3 -5 -8 -8 -0 -3 3 -3 -4 0 -1 2 2 -2 3 10 11 3 -4 13 12 10 8 1 -9 5 -6 -0 -0
2 -0 1 1 0 7 4 -0 3 1 5 2 7 -13 -7 -1 -3 -3 -3 -3 -1 -4 -7 4 -2 -3 1 5 -1 -8 7 15 5 -2 10 -4 -11 -11 -3 -3 5 -5 -1 -4
5 1 1 3 -2 2 -4 4 4 3 3 9 -9 8 0 -3 -9 -5 -3 -1 -2 0 4 3 2 -0 1 4 7 -9 2 15 -1 5 -0 11 17 -2 4 4 6 -0 -0 -1
-6 -2 5 -2 -1 1 -1 2 1 1 4 6 3 5 3 1 11 -5 -5 -2 1 -5 1 5 5 5 4 -6 19 -8 8 13 9 11 24 4 -8 9 -3 2 1 4 -2 1
-1 -1 1 4 2 2 4 4 -3 3 9 2 1 3 14 1 1 7 4 -1 1 -1 -1 0 5 1 -2 0 13 -4 7 16 2 13 14 -6 11 -46 4 2 2 10 0 -8
2 11 2 2 1 5 -1 5 6 2 3 -3 -1 3 9 4 2 1 2 3 4 -3 -2 1 1 8 1 6 10 4 0 0 10 5 11 13 11 8 3 -1 -0 4 -0 2
1 -4 -1 2 -0 7 6 4 5 4 -0 8 -0 4 9 -5 -5 -5 -3 -3 -0 2 -3 0 6 5 1 5 10 -2 -4 -7 1 -1 5 4 4 1 -5 2 -1 -5 3 3
2 -0 -0 -1 5 -2 7 4 5 2 2 -1 3 1 4 -6 -2 -2 -4 -1 -2 6 -9 -2 2 1 6 9 5 -0 -9 -5 1 2 -10 10 -1 -2 -1 -4 2 3 1 5
-0 4 -3 5 3 5 5 1 2 5 5 3 1 8 4 4 4 3 2 1 2 4 -4 -1 1 4 8 4 -5 36 9 10 -0 -1 -2 -4 2 0 -1 -3 -0 -1 3 -3
1 1 0 -3 -1 1 3 3 5 7 -4 0 3 8 1 2 3 2 2 1 1 5 4 -6 6 2 6 7 6 1 36 3 11 11 12 4 1 -7 -2 1 -1 -2 0 2
2 -0 -1 8 14 -2 -1 -3 2 2 2 -2 6 9 1 -2 -3 0 1 -1 0 2 1 -3 -2 -1 4 0 1 2 -7 -14 -8 -3 -11 -5 -3 -7 -1 -2 -0 3 2 -1
1 0 2 3 5 3 -2 -3 -1 2 2 1 4 2 -2 -1 0 -2 -1 -1 0 1 2 -0 -5 2 5 -0 0 6 9 10 9 5 4 4 -0 -0 2 2 0 1 1 2
4 1 2 -1 -1 0 3 2 -1 -3 1 3 5 -1 4 4 3 4 5 -0 -1 0 -1 1 -2 -6 2 1 9 -0 6 2 4 1 1 -1 -1 -2 1 1 1 0 1 1
1 1 1 -2 -0 1 -1 -0 -0 -0 2 -0 -1 3 1 2 -2 -3 2 0 -0 0 0 0 -2 2 2 -2 1 4 1 5 -6 -2 -3 7 -2 2 -2 0 1 3 1 1
0 0 2 -0 -0 2 6 3 1 1 -0 1 1 5 0 2 0 1 -1 1 3 3 2 -1 0 3 -4 -0 4 -10 -9 -7 -3 1 5 3 4 4 2 1 3 2 -4 2
-0 1 1 -0 4 7 13 1 -3 -3 2 0 0 1 -1 0 1 -0 -0 1 0 -0 1 2 4 1 1 2 -0 1 3 1 -4 -4 -9 -3 -0 -4 2 1 -2 -0 -1 -2
0 1 0 3 1 8 7 2 1 3 5 1 0 1 1 0 4 0 -1 1 1 -0 -1 -2 -2 -2 -2 3 5 7 8 5 0 -4 7 4 4 2 -1 -3 -1 -2 -1 2
2 3 5 0 3 -1 7 1 -1 1 7 1 -1 0 0 2 3 5 -0 -1 -1 1 2 0 2 3 2 -0 0 -2 -6 -4 -6 -5 -4 -2 -5 -5 -5 -2 -2 1 1 -3
2 2 1 -0 1 6 3 0 -0 12 13 1 -1 2 1 -2 6 -1 1 -1 1 0 -1 -1 0 1 2 4 5 -1 2 1 4 2 -1 -2 -3 -2 0 2 0 1 -1 0
-0 1 -0 2 3 7 1 4 8 5 5 -1 1 1 -1 -1 -0 -1 1 -1 -1 1 -1 -2 -3 -4 -2 -4 -3 -6 -7 -2 -5 -4 -3 -3 -2 -1 -1 1 0 -0 2 -1
6 4 3 6 8 4 4 1 3 1 -3 2 -4 1 -0 -1 -1 -1 -0 -1 -1 2 1 1 2 2 -1 -0 -0 -1 -2 2 0 -0 2 -1 -0 1 -2 -3 -1 0 -1 -2
2 -0 -1 5 7 2 0 2 -1 1 -0 1 -0 -1 -1 -2 -1 -0 1 2 2 1 1 0 1 1 -1 1 -0 3 1 3 4 4 3 3 2 -1 0 -2 -2 -2 -1 -3
1 2 -1 4 4 1 2 1 1 0 -1 -2 -0 -0 -0 0 1 1 2 1 1 -0 -2 -2 -1 -1 0 2 0 -0 -1 1 1 -1 -2 -5 -4 -4 -1 -2 -2 -3 -4 -3
0 -1 1 3 -4 1 1 1 -0 -2 -1 -1 -1 -1 -1 -2 -2 -2 -2 -2 -2 -2 -1 -1 -1 -1 -3 -0 -2 -2 -2 1 -1 -4 -5 -4 -2 -4 -2 -2 5 -8 1 0
Height
1505 1499 1489 1491 1496 1497 1493 1488 1479 1474 1470 1473 1466 1458 1453 1445 1443 1443 1440 1436 1432 1427 1425 1426 1425 1423 1424 1424 1424 1423 1426 1431 1434 1436 1439 1443 1449 1455 1460 1467 1469 1471 1475 1480
1501 1489 1492 1498 1498 1498 1492 1485 1476 1466 1468 1469 1452 1449 1441 1442 1442 1448 1448 1442 1436 1429 1423 1420 1418 1417 1414 1415 1413 1412 1415 1421 1425 1428 1432 1438 1441 1448 1454 1461 1464 1466 1469 1474
1495 1488 1496 1496 1492 1491 1485 1480 1474 1471 1466 1458 1449 1434 1433 1443 1450 1454 1454 1450 1442 1433 1427 1422 1416 1414 1411 1408 1405 1404 1405 1410 1415 1420 1426 1431 1437 1443 1447 1452 1456 1457 1463 1469
1493 1492 1493 1491 1489 1486 1483 1475 1475 1471 1466 1457 1454 1441 1433 1443 1447 1454 1452 1449 1442 1436 1430 1423 1417 1412 1407 1399 1394 1396 1397 1397 1404 1410 1416 1418 1422 1428 1434 1439 1446 1450 1458 1463
1485 1489 1488 1487 1483 1484 1476 1476 1475 1471 1465 1459 1441 1446 1418 1444 1451 1454 1455 1452 1446 1439 1432 1423 1415 1409 1404 1393 1390 1389 1390 1391 1394 1401 1405 1407 1417 1426 1436 1439 1440 1442 1450 1458
1489 1489 1491 1483 1483 1481 1479 1476 1465 1460 1460 1453 1438 1451 1427 1460 1469 1463 1461 1455 1448 1440 1432 1423 1415 1406 1398 1391 1387 1385 1386 1385 1389 1394 1398 1405 1408 1408 1428 1434 1438 1436 1443 1451
1480 1479 1483 1485 1478 1473 1479 1470 1455 1452 1448 1428 1430 1443 1467 1474 1473 1471 1464 1457 1450 1441 1433 1423 1413 1403 1398 1393 1385 1383 1382 1381 1384 1389 1393 1399 1390 1419 1427 1432 1436 1431 1435 1442
1482 1471 1477 1480 1477 1476 1472 1472 1467 1471 1445 1437 1434 1440 1464 1473 1474 1473 1467 1460 1451 1441 1435 1424 1413 1408 1402 1395 1388 1382 1382 1383 1383 1386 1389 1394 1402 1416 1421 1422 1426 1430 1434 1436
1489 1485 1475 1476 1475 1477 1468 1468 1464 1470 1451 1455 1438 1459 1475 1468 1472 1472 1467 1460 1452 1443 1436 1426 1418 1409 1405 1398 1390 1384 1387 1388 1387 1387 1388 1390 1396 1406 1415 1418 1422 1428 1432 1432
1492 1495 1473 1474 1473 1468 1469 1468 1467 1468 1457 1440 1436 1457 1467 1474 1476 1473 1469 1464 1456 1445 1437 1429 1419 1414 1408 1401 1395 1391 1401 1389 1390 1389 1404 1389 1396 1402 1408 1414 1420 1423 1426 1428
1490 1501 1472 1470 1463 1463 1463 1466 1468 1467 1452 1445 1434 1459 1484 1483 1483 1478 1475 1471 1463 1453 1444 1436 1427 1420 1415 1408 1402 1397 1392 1389 1392 1396 1394 1399 1403 1404 1408 1414 1416 1419 1420 1424
1489 1487 1477 1465 1462 1468 1463 1462 1467 1459 1445 1445 1448 1469 1487 1487 1486 1482 1479 1474 1468 1460 1451 1443 1433 1424 1415 1407 1403 1399 1392 1394 1400 1400 1400 1400 1403 1407 1411 1412 1413 1414 1416 1419
1486 1480 1469 1452 1463 1462 1469 1472 1469 1466 1459 1450 1447 1470 1487 1488 1486 1485 1481 1476 1471 1463 1453 1446 1439 1432 1424 1417 1413 1411 1408 1409 1406 1404 1406 1408 1408 1410 1410 1411 1412 1414 1412 1414
1488 1478 1480 1471 1480 1484 1481 1476 1465 1455 1447 1458 1465 1482 1489 1489 1488 1487 1483 1479 1474 1468 1461 1454 1446 1441 1433 1429 1425 1419 1419 1419 1418 1416 1415 1411 1410 1412 1412 1412 1412 1411 1411 1412
1484 1484 1479 1481 1485 1479 1482 1483 1475 1466 1463 1458 1480 1486 1494 1495 1494 1491 1488 1483 1477 1470 1465 1462 1455 1450 1445 1436 1429 1426 1424 1421 1418 1417 1416 1416 1416 1416 1416 1414 1413 1412 1412 1410
1484 1481 1483 1479 1477 1478 1482 1483 1476 1474 1476 1480 1482 1491 1499 1499 1498 1494 1489 1486 1483 1479 1474 1468 1463 1457 1450 1448 1443 1439 1432 1428 1428 1428 1426 1423 1422 1423 1421 1419 1417 1415 1413 1411
1484 1484 1481 1461 1473 1468 1469 1486 1486 1485 1482 1478 1477 1492 1499 1499 1500 1498 1493 1490 1487 1483 1479 1474 1472 1466 1461 1456 1449 1443 1443 1442 1441 1436 1433 1430 1429 1427 1423 1423 1420 1417 1415 1415
1482 1484 1483 1460 1470 1459 1481 1485 1484 1486 1489 1488 1489 1495 1499 1501 1503 1502 1499 1495 1491 1487 1483 1479 1475 1471 1467 1463 1459 1456 1452 1446 1443 1439 1437 1438 1434 1432 1431 1429 1425 1423 1421 1417
1481 1483 1471 1465 1456 1478 1483 1486 1483 1482 1492 1493 1492 1495 1499 1501 1499 1501 1501 1498 1495 1492 1489 1486 1481 1476 1472 1468 1465 1461 1455 1451 1448 1449 1447 1443 1440 1438 1437 1435 1433 1430 1428 1425
1478 1480 1475 1463 1457 1454 1477 1485 1488 1488 1482 1494 1493 1494 1494 1498 1490 1502 1503 1500 1497 1495 1491 1488 1485 1482 1479 1476 1472 1467 1464 1461 1458 1455 1452 1449 1446 1444 1442 1440 1437 1434 1431 1428
1470 1470 1468 1463 1457 1472 1485 1487 1488 1478 1488 1493 1494 1494 1493 1496 1501 1505 1504 1501 1499 1497 1494 1492 1489 1486 1484 1480 1476 1471 1468 1463 1462 1459 1456 1454 1452 1450 1448 1445 1441 1439 1435 1433
1462 1465 1465 1465 1460 1465 1487 1485 1480 1489 1491 1493 1496 1498 1499 1502 1504 1505 1503 1501 1501 1500 1497 1495 1494 1491 1488 1484 1481 1476 1473 1472 1469 1468 1464 1461 1458 1455 1453 1449 1446 1443 1439 1436
1467 1469 1468 1478 1478 1488 1488 1486 1487 1490 1493 1495 1497 1500 1501 1503 1504 1504 1504 1503 1503 1502 1500 1499 1498 1495 1492 1489 1485 1483 1481 1480 1477 1474 1470 1465 1461 1457 1454 1452 1448 1444 1440 1438
1474 1475 1476 1480 1489 1490 1491 1490 1491 1492 1494 1497 1499 1501 1502 1504 1505 1506 1505 1504 1504 1503 1502 1502 1500 1497 1495 1491 1487 1484 1482 1482 1479 1474 1470 1466 1462 1461 1457 1454 1451 1447 1443 1442
1472 1475 1477 1485 1490 1492 1493 1493 1494 1494 1496 1498 1501 1502 1503 1504 1506 1506 1506 1505 1504 1503 1503 1502 1500 1498 1495 1492 1488 1485 1484 1482 1479 1474 1471 1467 1465 1463 1460 1456 1454 1451 1449 1447
1474 1473 1473 1473 1484 1486 1491 1493 1495 1497 1499 1501 1501 1502 1503 1505 1506 1506 1506 1505 1505 1505 1503 1502 1501 1498 1496 1493 1490 1487 1485 1482 1478 1477 1475 1472 1470 1467 1465 1462 1462 1456 1454 1449